Location: Boissi�res
(45.2500°N, 2.3667°E)
Time: 05:03:32
(UTC+00:00)

Meteor 2-4 Rocket - Pass Details

Date: 03 March 2021
Orbit: 799 x 908 km, 81.2° (Epoch: 13 April)

Event Time Altitude Azimuth Distance (km) Brightness Sun altitude
Rises 18:45:59 0° 351° (N) 3,488 7.1 -12.3°
Reaches altitude 10° 18:48:27 10° 355° (N) 2,559 6.3 -12.7°
Maximum altitude 18:54:16 64° 77° (ENE) 992 3.8 -13.7°
Drops below altitude 10° 19:00:08 10° 159° (SSE) 2,583 6.0 -14.8°
Sets 19:02:37 0° 162° (SSE) 3,522 6.7 -15.2°
